Regional Weather Roundup
Issued by NWS

Home | Current Version | Previous Version | Graphics & Text | Print | Product List | Glossary On
Versions: 1 2 3 4 5 6 7 8 9 10 11 12 13 14 15 16 17 18 19 20 21 22 23 24 25 26 27 28 29 30 31 32 33 34 35 36 37 38 39 40 41 42 43 44 45 46 47 48 49 50
000
ASUS43 KDTX 260210
RWRMI
MICHIGAN HOURLY REGIONAL WEATHER ROUNDUP
NATIONAL WEATHER SERVICE DETROIT/PONTIAC MI
1000 PM EDT MON MAY 25 2015

NOTE: "FAIR" INDICATES FEW OR NO CLOUDS BELOW 12,000 FEET WITH NO
SIGNIFICANT WEATHER AND/OR OBSTRUCTION TO VISIBILITY.

MIZ047>049-052>055-059>063-066>070-074>076-081>083-260300-
SOUTHEAST LOWER MICHIGAN

CITY           SKY/WX    TMP DP  RH WIND       PRES   REMARKS
ADRIAN         MOCLDY    73  62  68 SW9       30.00R
ALMA           CLOUDY    69  62  80 S6        29.94R
ANN ARBOR      PTCLDY    73  62  68 SW8       29.98R
BAD AXE        MOCLDY    70  61  73 SW9G16    29.93R
CARO           MOCLDY    68  62  80 SW8       29.94R
DETROIT CITY   PTCLDY    76  61  59 SW13      29.97R
DETROIT        MOCLDY    74  62  66 S13       29.99R
FLINT          MOCLDY    72  61  68 W9        29.96R
GROSSE ILE     MOCLDY    75  63  64 SW8       29.98R
HILLSDALE      PTCLDY    73  61  65 SW5       30.01R
HOWELL         PTCLDY    70  64  82 CALM      29.98R

CITY           SKY/WX    TMP DP  RH WIND       PRES   REMARKS
JACKSON        MOCLDY    71  57  61 CALM      29.99R
LAMBERTVILLE   MOCLDY    77  59  53 SW6       30.01R
LANSING        MOCLDY    67  59  75 S3        29.97R
LAPEER         FAIR      66  64  94 SW3       29.97R
MASON          MOCLDY    64  60  86 CALM      29.97R
MONROE         MOCLDY    75  61  60 SW7       29.98R
MT. CLEMENS    PTCLDY    76  62  59 SW13G22   29.94R
PONTIAC        MOCLDY    72  64  76 W7        29.97R
PORT HOPE        N/A    N/A N/A N/A VRB6G17   29.88R
PORT HURON     MOCLDY    68  64  88 CALM      29.97R
TRI CITIES     CLOUDY    71  61  70 SW12      29.93R
MIDLAND        FAIR      69  60  72 SW5       29.92R
TROY           MOCLDY    77  60  56 SW13      29.99R
SAGINAW HB     MOCLDY    70  61  73 SW10G16   29.93R
$$
MIZ043>046-050>051-056>058-064>065-071>073-077>080-260300-
SOUTHWEST LOWER MICHIGAN

CITY           SKY/WX    TMP DP  RH WIND       PRES   REMARKS
BATTLE CREEK   MOCLDY    68  60  75 S3        29.98R
BENTON HARBOR  MOCLDY    69  57  65 SE5       29.93F
BIG RAPIDS     PTCLDY    68  59  73 SW7G20    29.91R
COLDWATER      MOCLDY    70  59  68 SW5       29.99R
FREMONT        FAIR      65  59  80 S8        29.91R
HOLLAND        MOCLDY    70  58  65 SW9       29.94R
GRAND RAPIDS   MOCLDY    69  60  73 S7        29.94R
IONIA          FAIR      70  60  70 SW7       29.95R
KALAMAZOO      MOCLDY    70  60  70 CALM      29.97R
LUDINGTON      PTCLDY    68  59  72 SW15G25   29.86S
MARSHALL       MOCLDY    67  62  85 CALM      29.97R
MOUNT PLEASANT MOCLDY    69  60  73 SW6       29.92R
MUSKEGON       MOCLDY    67  55  65 S12       29.91S
SOUTH HAVEN    MOCLDY    69  57  65 S3        29.94S
$$
MIZ016>042-260300-
NORTHERN LOWER MICHIGAN

CITY           SKY/WX    TMP DP  RH WIND       PRES   REMARKS
ALPENA         MOCLDY    69  62  78 SW7       29.84R
BEAVER ISLAND  CLEAR     61  55  82 SW15G22   29.79R
BELLAIRE       MOCLDY    69  60  73 SW3       29.83R
CADILLAC       PTCLDY    67  60  79 SW10      29.89R
CHARLEVOIX     PTCLDY    69  60  75 SW10G16   29.84R
FRANKFORT      PTCLDY    69  55  61 S12G18    29.83F
GAYLORD        MOCLDY    66  63  90 SW10      29.86R
GRAYLING       PTCLDY    68  59  73 S6        29.88R
HARBOR SPRINGS MOCLDY    63  58  86 SW3       29.81R
HOUGHTON LAKE  MOCLDY    68  60  75 SW8       29.89R
MANISTEE       PTCLDY    68  57  68 S7        29.86S
OSCODA         MOCLDY    71  61  71 SW9       29.87R
PELLSTON       PTCLDY    68  61  78 SW8       29.81R
ROGERS CITY    MOCLDY    67  62  83 SW3       29.83R
TRAVERSE CITY  MOCLDY    71  60  68 VRB6      29.82R
$$
MIZ007>008-015-260300-
EASTERN UPPER MICHIGAN

CITY           SKY/WX    TMP DP  RH WIND       PRES   REMARKS
KINROSS        CLOUDY    59  57  94 SW6       29.78R
MACKINAC ISLAN CLOUDY    59  58  96 W7        29.80R
NEWBERRY       CLOUDY    55  55  99 SW16      29.77R FOG
S. S. MARIE    CLOUDY    61  59  93 SW7       29.76S
MUNISING         N/A     66  63  90 S3        29.74R
$$
MIZ004>006-011>014-085-260300-
CENTRAL UPPER MICHIGAN

CITY           SKY/WX    TMP DP  RH WIND       PRES   REMARKS
MANISTIQUE     CLEAR     46  45  95 S9        29.77R
ESCANABA       CLEAR     59  54  82 S5        29.75S
MENOMINEE      CLOUDY    68  61  77 S5        29.76S
SAWYER-GWINN   PTCLDY    64  59  82 SW7       29.74S
$$
MIZ001>003-009>011-084-260300-
WESTERN UPPER MICHIGAN

CITY           SKY/WX    TMP DP  RH WIND       PRES   REMARKS
IRON MOUNTAIN  MOCLDY    63  58  83 S6        29.75F
HOUGHTON       CLOUDY    54  53  97 W14       29.71R
COPPER HARBOR    N/A     44  42  93 CALM      29.69F
IRONWOOD       MOCLDY    57  57 100 CALM      29.72R
$$

ABBREVIATIONS USED IN REMARKS
   TC - TEMPERATURE IN CELSIUS
  WCI - WIND CHILL INDEX
   HX - HEAT INDEX
  VSB - VISIBILITY




USA.gov is the U.S. government's official web portal to all federal, state and local government web resources and services.